FW0069 Weather Reports


Display with metric or nautical units.
time (UTC)temp
F
wind
direction
speed
MPH
gust
MPH
rain 1hr
in
rain 24hr
in
rain mn
in
humidity
%
barometer
mb
20260504050507 74 360 3.0 3.0 0.00 0.00 0.00 19 1007.7
20260504045507 75 360 1.0 3.0 0.00 0.00 0.00 19 1007.5
20260504045038 75 360 1.0 2.0 0.00 0.00 0.00 20 1007.8
20260504044537 75 360 0.0 2.0 0.00 0.00 0.00 20 1007.9
20260504044006 76 206 0.0 2.0 0.00 0.00 0.00 19 1007.9
20260504043507 76 206 0.0 2.0 0.00 0.00 0.00 19 1007.9
20260504043007 77 206 1.0 2.0 0.00 0.00 0.00 19 1007.8
20260504042506 77 206 0.0 3.0 0.00 0.00 0.00 18 1007.9
20260504042007 77 206 1.0 3.0 0.00 0.00 0.00 18 1007.8
20260504041536 78 206 0.0 0.0 0.00 0.00 0.00 17 1007.7
20260504041037 78 206 0.0 1.0 0.00 0.00 0.00 17 1007.6
20260504040537 79 213 0.0 1.0 0.00 0.00 0.00 17 1007.5
20260504035507 79 211 0.0 5.0 0.00 0.00 0.00 16 1007.4
20260504035007 80 210 1.0 5.0 0.00 0.00 0.00 16 1007.3
20260504034507 80 360 3.0 5.0 0.00 0.00 0.00 16 1007.2
20260504033537 81 360 3.0 5.0 0.00 0.00 0.00 15 1007.0
20260504033037 81 360 4.0 7.0 0.00 0.00 0.00 15 1006.9
20260504032507 81 360 4.0 7.0 0.00 0.00 0.00 15 1006.8
20260504032006 81 360 4.0 8.0 0.00 0.00 0.00 15 1006.8
20260504031537 81 360 3.0 11.0 0.00 0.00 0.00 14 1006.6
20260504031037 82 360 8.0 13.0 0.00 0.00 0.00 14 1006.5
20260504030037 82 360 7.0 17.0 0.00 0.00 0.00 13 1006.4
20260504025037 82 360 8.0 19.0 0.00 0.00 0.00 12 1005.6
20260504024536 82 360 4.0 19.0 0.00 0.00 0.00 12 1005.6
20260504024007 83 360 4.0 9.0 0.00 0.00 0.00 13 1005.5
20260504023006 83 360 5.0 13.0 0.00 0.00 0.00 13 1005.5
20260504022506 83 360 8.0 13.0 0.00 0.00 0.00 12 1005.6
20260504021537 83 360 7.0 14.0 0.00 0.00 0.00 12 1005.7
20260504021006 83 360 4.0 16.0 0.00 0.00 0.00 12 1005.6
20260504020037 83 360 15.0 18.0 0.00 0.00 0.00 12 1005.8
20260504015537 83 360 4.0 10.0 0.00 0.00 0.00 12 1005.1
20260504015006 83 360 2.0 11.0 0.00 0.00 0.00 12 1004.9
20260504014536 84 360 6.0 11.0 0.00 0.00 0.00 12 1005.1
20260504014036 84 360 1.0 12.0 0.00 0.00 0.00 12 1005.1
20260504013536 85 360 5.0 15.0 0.00 0.00 0.00 12 1005.2
20260504012507 85 360 3.0 19.0 0.00 0.00 0.00 11 1005.1
20260504012007 85 360 7.0 15.0 0.00 0.00 0.00 11 1005.2
20260504011537 85 360 8.0 14.0 0.00 0.00 0.00 11 1005.1
20260504010536 85 360 9.0 20.0 0.00 0.00 0.00 11 1005.1
20260504010006 85 360 5.0 15.0 0.00 0.00 0.00 10 1005.2
20260504005536 85 360 5.0 13.0 0.00 0.00 0.00 11 1005.1
20260504005036 85 360 7.0 13.0 0.00 0.00 0.00 11 1005.1
20260504004537 85 360 6.0 10.0 0.00 0.00 0.00 11 1005.0
20260504003506 85 162 0.0 10.0 0.00 0.00 0.00 12 1005.1
20260504003036 85 360 2.0 9.0 0.00 0.00 0.00 13 1005.2
20260504002507 85 225 3.0 9.0 0.00 0.00 0.00 13 1005.3
20260504002006 84 360 6.0 10.0 0.00 0.00 0.00 13 1005.2
20260504001506 84 360 5.0 14.0 0.00 0.00 0.00 13 1005.2
20260504001006 84 360 6.0 14.0 0.00 0.00 0.00 13 1005.3
20260504000507 85 360 7.0 12.0 0.00 0.00 0.00 12 1005.5
20260503235536 85 226 1.0 13.0 0.00 0.00 0.00 12 1005.8
20260503235036 86 218 6.0 13.0 0.00 0.00 0.00 11 1005.8
20260503234506 86 360 6.0 18.0 0.00 0.00 0.00 11 1005.7
20260503234036 86 360 9.0 18.0 0.00 0.00 0.00 11 1005.8
20260503233036 86 360 8.0 12.0 0.00 0.00 0.00 11 1005.7
20260503232537 86 360 1.0 9.0 0.00 0.00 0.00 13 1005.7
20260503232006 86 187 2.0 12.0 0.00 0.00 0.00 12 1005.9
20260503231536 87 360 9.0 12.0 0.00 0.00 0.00 12 1005.9
20260503231036 86 360 6.0 15.0 0.00 0.00 0.00 12 1005.9
20260503230506 87 360 3.0 15.0 0.00 0.00 0.00 12 1006.1
20260503225536 86 111 11.0 15.0 0.00 0.00 0.00 12 1006.2
20260503225006 86 360 9.0 11.0 0.00 0.00 0.00 12 1006.3
20260503224506 86 360 3.0 13.0 0.00 0.00 0.00 12 1006.4
20260503223506 86 360 10.0 14.0 0.00 0.00 0.00 12 1006.6
20260503223036 86 182 1.0 13.0 0.00 0.00 0.00 12 1006.7
20260503222536 86 173 2.0 14.0 0.00 0.00 0.00 12 1006.7
20260503222006 86 360 7.0 14.0 0.00 0.00 0.00 12 1007.0
20260503221536 86 360 3.0 7.0 0.00 0.00 0.00 12 1006.9
20260503221036 86 360 4.0 7.0 0.00 0.00 0.00 11 1007.2
20260503220506 86 360 4.0 7.0 0.00 0.00 0.00 11 1007.2
20260503220036 86 193 5.0 10.0 0.00 0.00 0.00 11 1007.3
20260503215536 86 360 2.0 13.0 0.00 0.00 0.00 11 1007.3
20260503215006 87 360 4.0 13.0 0.00 0.00 0.00 11 1007.7
20260503214506 86 160 4.0 7.0 0.00 0.00 0.00 12 1007.5
20260503214036 86 142 1.0 11.0 0.00 0.00 0.00 12 1007.7
20260503213507 86 360 5.0 11.0 0.00 0.00 0.00 11 1007.7
20260503212537 87 360 3.0 8.0 0.00 0.00 0.00 11 1008.2
20260503211537 87 360 6.0 9.0 0.00 0.00 0.00 10 1008.1
20260503211007 86 360 6.0 9.0 0.00 0.00 0.00 10 1008.3
20260503210506 86 360 1.0 9.0 0.00 0.00 0.00 9 1008.3
20260503205536 86 360 0.0 7.0 0.00 0.00 0.00 10 1008.5
20260503205036 87 360 2.0 12.0 0.00 0.00 0.00 9 1008.7
20260503204036 89 75 3.0 8.0 0.00 0.00 0.00 9 1009.1
20260503203536 89 360 5.0 8.0 0.00 0.00 0.00 8 1009.3
20260503203006 88 159 2.0 12.0 0.00 0.00 0.00 9 1009.6
20260503202536 89 82 3.0 12.0 0.00 0.00 0.00 9 1009.8
20260503201536 89 355 6.0 11.0 0.00 0.00 0.00 9 1010.0
20260503200506 87 76 7.0 12.0 0.00 0.00 0.00 9 1010.0
20260503200006 87 360 3.0 9.0 0.00 0.00 0.00 9 1010.0
20260503195506 87 360 2.0 12.0 0.00 0.00 0.00 9 1010.4
20260503195036 87 100 3.0 12.0 0.00 0.00 0.00 9 1010.6
20260503194537 87 79 11.0 12.0 0.00 0.00 0.00 9 1010.8
20260503193506 87 65 2.0 12.0 0.00 0.00 0.00 9 1010.9
20260503193006 88 360 6.0 16.0 0.00 0.00 0.00 9 1011.1
20260503192506 87 360 8.0 16.0 0.00 0.00 0.00 9 1011.3
20260503192007 87 360 8.0 12.0 0.00 0.00 0.00 9 1011.4
20260503191506 86 360 3.0 10.0 0.00 0.00 0.00 10 1011.3
20260503191007 85 360 8.0 10.0 0.00 0.00 0.00 9 1011.3
20260503190037 86 360 9.0 10.0 0.00 0.00 0.00 9 1011.5
20260503185536 86 360 9.0 9.0 0.00 0.00 0.00 8 1011.7
20260503184506 85 97 6.0 13.0 0.00 0.00 0.00 9 1011.7
20260503184006 86 360 4.0 13.0 0.00 0.00 0.00 8 1011.9
20260503183507 85 360 5.0 10.0 0.00 0.00 0.00 8 1011.9
20260503183007 85 360 3.0 11.0 0.00 0.00 0.00 7 1011.9
20260503182507 86 113 2.0 15.0 0.00 0.00 0.00 7 1012.2
20260503182006 85 136 7.0 15.0 0.00 0.00 0.00 8 1011.9
20260503181506 84 136 1.0 12.0 0.00 0.00 0.00 7 1012.1
20260503181006 85 138 4.0 12.0 0.00 0.00 0.00 8 1012.2
20260503180007 83 360 5.0 11.0 0.00 0.00 0.00 8 1012.1
20260503175005 84 111 8.0 11.0 0.00 0.00 0.00 8 1012.7
20260503174505 84 360 2.0 10.0 0.00 0.00 0.00 8 1012.8
20260503174006 84 360 7.0 10.0 0.00 0.00 0.00 8 1012.7
20260503173505 83 360 5.0 11.0 0.00 0.00 0.00 8 1012.5
20260503173035 83 122 1.0 11.0 0.00 0.00 0.00 9 1012.7
20260503172536 82 360 3.0 10.0 0.00 0.00 0.00 9 1012.7
20260503172006 82 360 2.0 10.0 0.00 0.00 0.00 9 1012.8
20260503171005 81 115 3.0 9.0 0.00 0.00 0.00 9 1012.5
20260503170505 81 50 6.0 7.0 0.00 0.00 0.00 9 1012.6
20260503151005 71 292 1.0 3.0 0.00 0.00 0.00 14 1013.1
20260503130536 57 304 2.0 7.0 0.00 0.00 0.00 15 1012.1
20260503110505 63 299 1.0 5.0 0.00 0.00 0.00 13 1012.1
20260503090505 64 360 1.0 4.0 0.00 0.00 0.00 13 1012.5
20260503080506 67 360 4.0 6.0 0.00 0.00 0.00 11 1013.3
20260503072535 66 360 2.0 3.0 0.00 0.00 0.00 13 1013.4